Deming, NM

7:30 PM MDT on May 24, 2018 (GMT -0600)
Deming Municipal

Weather History for KDMN - November, 2012

Change the Weather History Date:

Thursday, November 15, 2012

  Actual Average Record
Temperature  
Mean Temperature 48 °F 50 °F  
Max Temperature 70 °F 66 °F 79 °F (2017)
Min Temperature 28 °F 34 °F 20 °F (1985)
Degree Days  
Heating Degree Days 16    
Moisture  
Dew Point 10 °F    
Average Humidity 25    
Maximum Humidity 39    
Minimum Humidity 10    
Precipitation  
Precipitation 0.00 in 0.02 in 0.30 in (1993)
Month to date precipitation T 0.29  
Year to date precipitation 3.75 10.24  
Sea Level Pressure  
Sea Level Pressure 30.13 in    
Wind  
Wind Speed 5 mph (NE)    
Max Wind Speed 12 mph    
Max Gust Speed 15 mph    
Visibility 10 miles    
Events      
T = Trace of Precipitation, MM = Missing Value Source: NWS Daily Summary

Daily Weather History Graph

Daily Weather History Graph

Search for Another Location

Airport or City:

Astronomy

Nov. 15, 2012 Rise Set
Actual Time 6:40 AM MST 5:10 PM MST
Civil Twilight 6:14 AM MST 5:36 PM MST
Nautical Twilight 5:44 AM MST 6:05 PM MST
Astronomical Twilight 5:15 AM MST 6:35 PM MST
Moon 8:35 AM MST (11/15) 7:08 PM MST (11/15)
Length of Visible Light 11h 21m
Length of Day
10h 29m
Waxing Crescent, 5% of the Moon is Illuminated
Nov 15
Waxing Crescent
Nov 20
First Quarter
Nov 28
Full
Dec 6
Last Quarter
Dec 13
New

Hourly Weather History & Observations

Time (MST) Temp. Windchill Dew Point Humidity Pressure Visibility Wind Dir Wind Speed Gust Speed Precip Events Conditions
12:53 AM 37.9 °F 32.7 °F 9.0 °F 30% 30.10 in 10.0 mi NW 6.9 mph - N/A   Clear
1:53 AM 36.0 °F 33.3 °F 10.0 °F 34% 30.10 in 10.0 mi WNW 3.5 mph - N/A   Clear
2:53 AM 34.0 °F 29.8 °F 10.0 °F 37% 30.10 in 10.0 mi NW 4.6 mph - N/A   Clear
3:53 AM 33.1 °F 30.0 °F 10.0 °F 38% 30.09 in 10.0 mi NNW 3.5 mph - N/A   Clear
4:53 AM 28.9 °F - 5.0 °F 36% 30.12 in 10.0 mi Calm Calm - N/A   Clear
5:53 AM 30.0 °F 25.2 °F 8.1 °F 40% 30.16 in 10.0 mi NW 4.6 mph - N/A   Clear
6:53 AM 30.9 °F 27.5 °F 9.0 °F 40% 30.19 in 10.0 mi WNW 3.5 mph - N/A   Clear
7:53 AM 39.0 °F - 10.0 °F 30% 30.19 in 10.0 mi Calm Calm - N/A   Clear
8:53 AM 48.9 °F - 10.9 °F 22% 30.18 in 10.0 mi Calm Calm - N/A   Clear
9:53 AM 59.0 °F - 12.0 °F 16% 30.18 in 10.0 mi East 6.9 mph - N/A   Clear
10:53 AM 64.9 °F - 12.9 °F 13% 30.14 in 10.0 mi ENE 8.1 mph - N/A   Clear
11:53 AM 66.9 °F - 12.0 °F 12% 30.13 in 10.0 mi ESE 6.9 mph - N/A   Clear
12:53 PM 68.0 °F - 10.0 °F 11% 30.10 in 10.0 mi East 8.1 mph - N/A   Clear
1:53 PM 68.0 °F - 10.0 °F 11% 30.11 in 10.0 mi ENE 3.5 mph - N/A   Clear
2:53 PM 69.1 °F - 10.9 °F 11% 30.10 in 10.0 mi Variable 4.6 mph - N/A   Clear
3:53 PM 68.0 °F - 12.0 °F 11% 30.10 in 10.0 mi East 6.9 mph - N/A   Clear
4:53 PM 64.9 °F - 12.0 °F 13% 30.12 in 10.0 mi East 3.5 mph - N/A   Clear
5:53 PM 61.0 °F - 10.9 °F 14% 30.14 in 10.0 mi ENE 6.9 mph - N/A   Clear
6:53 PM 59.0 °F - 10.0 °F 14% 30.15 in 10.0 mi NE 5.8 mph - N/A   Clear
7:53 PM 57.0 °F - 10.0 °F 15% 30.16 in 10.0 mi East 5.8 mph - N/A   Partly Cloudy
8:53 PM 57.9 °F - 10.0 °F 15% 30.14 in 10.0 mi East 4.6 mph - N/A   Partly Cloudy
9:53 PM 55.0 °F - 10.0 °F 17% 30.13 in 10.0 mi ENE 8.1 mph - N/A   Clear
10:53 PM 54.0 °F - 10.0 °F 17% 30.11 in 10.0 mi ENE 8.1 mph - N/A   Clear
11:53 PM 52.0 °F - 9.0 °F 18% 30.11 in 10.0 mi ENE 8.1 mph - N/A   Clear